Время (UTC), дата Ветер
(°,м/с) 
Видим.   Явления Облачность Т
(°С)
Тd
(°С)
f(%) Тe
(°С)
Pmin
(гПа)
dP
(гПа)
Po
(мм)
O2
(г/м3)
Тmin Tmax R s Состояние
почвы
00 01.06.10 130 (ЮВ) >10 км    4/0 верхняя 
[Ci fib]
+14.7 +11.3 80 +19  1014.6  -0.2  722  274           
03 01.06.10 110 (В) >10 км    1/0 верхняя 
[Ci fib]
+15 +10.9 77 +18  1014.6  0.1  722  274           
06 01.06.10 130 (ЮВ) >10 км    8/0 верхняя 
[Ci fib]
+21 +12.1 57 +26  1014  0.4  722  268  +13.9         
09 01.06.10 120 (ЮВ) >10 км    8/0 верхняя 
[Ci fib]
+25.6 +13.3 47 +32  1012.7  -0.3  722  263           
12 01.06.10 110 (В) >10 км    8/3 600 м средняя, верхняя 
[Cu hum|Ac trans|Ci fib]
+25.6 +12.3 44 +31  1012.1  -0.7  721  263           
15 01.06.10 120 (ЮВ) >10 км    8/3 1000 м кучево-дожд., средняя 
[Cb calv|Ac trans]
+24.8 +13.7 50 +32  1012.1  -0.1  721  264           
18 01.06.10 100 (В) >10 км    6/0 средняя 
[Ac trans]
+21 +12.5 58 +27  1012.5  -0.2  721  267    +27.2       
21 01.06.10 120 (ЮВ) >10 км    4/0 средняя 
[Ac trans]
+17.9 +11.1 64 +21  1011.9  -1.1  720  270           
00 02.06.10 120 (ЮВ) >10 км    3/0 средняя 
[Ac trans]
+15.4 +10 70 +17  1012.1  -0.4  720  273           
03 02.06.10 110 (В) >10 км    8/0 верхняя 
[Ci]
+15.6 +11.1 75 +18  1012.5  0.5  720  272           
06 02.06.10 140 (ЮВ) >10 км    4/0 верхняя 
[Ci fib]
+21.6 +13.2 59 +28  1010.6  -0.7  720  266  +13.2         
09 02.06.10 110 (В) >10 км    8/0 средняя, верхняя 
[Ac trans|Ci]
+24.1 +15 57 +34  1009.2  -0.9  719  263           
12 02.06.10 100 (В) >10 км    6/1 1000 м кучево-дожд., верхняя 
[Cb calv|Ci fib]
+26.8 +15.7 51 +38  1008.1  -0.6  719  260           
15 02.06.10 100 (В) >10 км    8/4 600 м кучево-дожд., средняя 
[Cb calv|Ac trans]
+25.6 +17.3 60 +40  1005.7  -2.4  717  260           
18 02.06.10 120 (ЮВ) >10 км    5/3 600 м кучево-дожд., средняя 
[Cb calv|Ac trans]
+22 +17.3 75 +36  1007.5  718  264    +27.7       
21 02.06.10 150 (ЮВ) >10 км    3/0 средняя 
[Ac trans]
+19.5 +15.3 77 +30  1007.8  -0.1  717  267           
00 03.06.10 070 (В) >10 км    5/0 средняя 
[Ac trans]
+17.8 +13.9 78 +26  1006.6  -1.5  716  268    +1.8       
03 03.06.10 080 (В) >10 км    6/0 средняя 
[Ac trans]
+17 +13.5 80 +24  1006.8  0.1  716  269           
06 03.06.10 160 (Ю) >10 км    6/0 средняя 
[Ac trans]
+23.1 +17.1 69 +37  1006.9  1.2  717  263  +16.6         
09 03.06.10 240 (ЮЗ) >10 км    8/0 средняя 
[Ac trans]
+28.6 +16.8 49 +42  1006.9  0.9  718  258           
12 03.06.10 320 (СЗ) >10 км    8/0 средняя 
[Ac trans]
+29 +16.9 48 +42  1007.2  0.3  718  258           
15 03.06.10 330 (СЗ) >10 км    9/0 средняя 
[Ac trans]
+27 +19.5 64 +46  1008.1  0.6  719  259           
18 03.06.10 340 (С) >10 км    8/0 средняя 
[Ac trans]
+23.8 +20.4 81 +45  1009  0.4  719  261    +29.9       
21 03.06.10 350 (С) >10 км    3/0 средняя 
[Ac trans]
+21.7 +17.8 78 +37  1009.7  0.2  719  264           
00 04.06.10 340 (С) >10 км    1/0 средняя 
[Ac trans]
+20.3 +16.7 80 +33  1009.4  -0.5  719  266           
03 04.06.10 320 (СЗ) >10 км    1/0 средняя 
[Ac trans]
+21.2 +18.8 86 +39  1010.2  0.9  719  264           
06 04.06.10 300 (СЗ) >10 км    4/4 600 м 
[Cu hum]
+24.8 +19.2 71 +43  1011  0.8  720  262  +20.1         
09 04.06.10 310 (СЗ) >10 км    8/6 800 м средняя 
[Cu hum|Ac trans]
+27.5 +20.4 65 +49  1010.9  0.4  721  259           
12 04.06.10 340 (С) >10 км    8/6 1000 м средняя 
[Cu hum|Ac trans]
+27.4 +19.6 62 +47  1011.1  0.1  721  259           
15 04.06.10 340 (С) >10 км    8/6 1000 м кучево-дожд., средняя 
[Cb calv|Ac trans]
+26 +19.2 66 +44  1011.6  0.3  721  261           
18 04.06.10 330 (СЗ) >10 км    9/5 1000 м кучево-дожд., средняя 
[Cb calv|Ac trans]
+23.5 +18.6 74 +40  1013.4  0.7  722  263    +27.7       
21 04.06.10 330 (СЗ) >10 км    9/3 1000 м кучево-дожд., средняя 
[Cb calv|Ac und]
+21.1 +17.2 78 +35  1012.7  0.5  721  266           
00 05.06.10 320 (СЗ) >10 км    9/3 1000 м кучево-дожд., средняя 
[Cb calv|Ac trans]
+21 +17.1 78 +35  1013.3  0.5  722  266           
03 05.06.10 310 (СЗ) >10 км    8/4 1000 м кучево-дожд., средняя 
[Cb calv|Ac trans]
+20.3 +17.2 82 +34  1014.7  1.2  722  267           
06 05.06.10 030 (СВ) >10 км    9/3 600 м средняя 
[Cu hum|Ac trans]
+22.6 +17.6 73 +37  1014.3  0.1  723  265  +20.1         
09 05.06.10 020 (С) >10 км    10/6 800 м кучево-дожд., средняя 
[Cb calv|Ac und]
+24.4 +18.1 68 +40  1013.9  -0.1  722  263           
12 05.06.10 020 (С) >10 км    9/4 1000 м кучево-дожд., средняя 
[Cb calv|Ac trans]
+25.9 +18 62 +41  1013.2  -0.4  722  262           
15 05.06.10 010 (С) >10 км    9/5 1000 м кучево-дожд., средняя 
[Cb calv|Ac trans]
+24.8 +17.6 64 +40  1012.9  -0.5  722  263           
18 05.06.10 030 (СВ) >10 км    10/8 800 м кучево-дожд., средняя 
[Cb calv|Ac und]
+22.4 +17.2 72 +36  1013.5  0.1  722  265    +26.4       
21 05.06.10 130 (ЮВ) >10 км  гроза без осадков  9/5 600 м кучево-дожд., средняя 
[Cb calv|Ac trans]
+19.2 +16.5 84 +33  1013.9  -0.1  722  268           
00 06.06.10 110 (В) >10 км  слаб. ливневой дождь{гроза}  10/6 900 м кучево-дожд., средняя 
[Cb cap|Ac und]
+16 +14 88 +24  1015.1  0.3  722  272           
03 06.06.10 150 (ЮВ) >10 км  {ливн. осадки}  9/3 1000 м кучево-дожд., средняя, верхняя 
[Cb calv|Ac trans|Ci fib]
+17.8 +14.3 80 +26  1013.6  -1  721  270           
06 06.06.10 060 (СВ) >10 км  {ливн. осадки}  5/1 600 м верхняя 
[Cu hum|Ci fib]
+21.1 +17 77 +35  1013.1  0.1  721  266  +15.7       
09 06.06.10 060 (СВ) >10 км    8/5 600 м кучево-дожд., верхняя 
[Cb calv|Ci fib]
+24.3 +16.5 62 +37  1012.3  -0.2  721  263           
12 06.06.10 080 (В) >10 км    10/5 1000 м кучево-дожд., средняя 
[Cb calv|Ac und]
+24.6 +17 63 +38  1011.8  -0.4  721  263           
15 06.06.10 070 (В) >10 км    8/3 1000 м кучево-дожд., средняя 
[Cb calv|Ac trans]
+24.8 +16.9 61 +38  1009.9  -1.8  720  262           
18 06.06.10 080 (В) >10 км    6/3 1000 м кучево-дожд., средняя 
[Cb calv|Ac trans]
+21.8 +16.2 70 +34  1010.5  0.1  720  265    +25.4       
21 06.06.10 060 (СВ) >10 км    6/0 средняя 
[Ac trans]
+19.7 +17.3 86 +34  1010.2  -0.6  719  266           
00 07.06.10 070 (В) >10 км    4/0 средняя 
[Ac trans]
+18.4 +14.8 80 +28  1009.3  -1.1  718  268           
03 07.06.10 060 (СВ) >10 км    9/5 600 м средняя 
[Sc|Ac trans]
+17.6 +15.4 87 +29  1009.4  -0.1  718  269           
06 07.06.10 070 (В) >10 км    8/3 600 м средняя 
[Cu hum|Ac trans]
+22.3 +16.9 71 +36  1008.6  0.1  718  264  +17.3         
09 07.06.10 090 (В) >10 км    8/3 600 м средняя, верхняя 
[Cu hum|Ac trans|Ci fib]
+24.3 +15.1 56 +34  1008.2  -0.2  718  263           
12 07.06.10 090 (В) 10  >10 км    8/3 1000 м кучево-дожд., средняя, верхняя 
[Cb calv|Ac trans|Ci fib]
+25 +14.2 51 +33  1007.1  -0.9  718  262           
15 07.06.10 080 (В) >10 км    10/4 600 м средняя 
[Sc diur, vesp|Ac und]
+23.9 +13.8 53 +32  1007.1  -0.2  717  263           
18 07.06.10 060 (СВ) >10 км    8/3 1000 м средняя 
[Sc diur, vesp|Ac trans]
+21.1 +12 56 +26  1007.4  -0.2  717  266    +25.7       
21 07.06.10 070 (В) >10 км    6/0 средняя 
[Ac trans]
+18.7 +11 61 +22  1008.4  0.5  718  269           
00 08.06.10 090 (В) >10 км    6/0 средняя 
[Ac trans]
+15.4 +9.2 66 +16  1009.5  0.3  718  272           
03 08.06.10 060 (СВ) >10 км    8/0 средняя, верхняя 
[Ac trans|Ci fib]
+16 +10.2 68 +18  1009.6  0.4  718  271           
06 08.06.10 110 (В) >10 км    8/3 1000 м кучево-дожд., средняя 
[Cb calv|Ac trans]
+19.9 +10.3 54 +22  1009.8  0.9  719  268  +15.1         
09 08.06.10 120 (ЮВ) >10 км    10/4 1000 м кучево-дожд., средняя 
[Cb calv|Ac und]
+19.9 +11.2 57 +25  1010.3  0.5  719  268           
12 08.06.10 100 (В) >10 км  слаб. ливневой дождь  10/8 900 м кучево-дожд., средняя 
[Cb cap|Ac und]
+17.9 +11.3 65 +22  1010.7  719  270           
15 08.06.10 310 (СЗ) >10 км  в посл. час ливневой дождь  10/8 900 м кучево-дожд., средняя 
[Cb calv|Ac und]
+15.3 +14 92 +25  1011.5  0.4  720  272           
18 08.06.10 040 (СВ) >10 км  {ливн. осадки}  8/4 600 м кучево-дожд., средняя 
[Cb calv|Ac trans]
+15.4 +13.2 87 +24  1011.3  -0.2  719  272    +21.1  0.9     
21 08.06.10 030 (СВ) >10 км    4/1 600 м кучево-дожд., средняя 
[Cb calv|Ac trans]
+14.3 +9.9 75 +18  1011.4  -0.2  719  274           
00 09.06.10 070 (В) >10 км    4/0 средняя 
[Ac trans]
+13.4 +7.7 68 +15  1011.3  -0.3  719  275           
03 09.06.10 340 (С) >10 км    4/1 600 м кучево-дожд., средняя 
[Cb calv|Ac trans]
+14.3 +13 92 +21  1011.6  0.6  719  273           
06 09.06.10 020 (С) >10 км    8/3 1000 м кучево-дожд., средняя 
[Cb calv|Ac trans]
+19.6 +9 50 +22  1011.3  0.5  720  269  +12.4         
09 09.06.10 350 (С) >10 км    8/3 1000 м средняя 
[Sc diur, vesp|Ac trans]
+24 +7 34 +24  1010.7  0.1  720  265           
12 09.06.10 030 (СВ) >10 км    4/0 средняя 
[Ac trans]
+26.6 +8.4 32 +27  1009.3  -0.8  719  263           
15 09.06.10 030 (СВ) >10 км    8/3 1000 м кучево-дожд., средняя 
[Cb calv|Ac trans]
+23.7 +9 39 +24  1010.6  0.7  720  265           
18 09.06.10 340 (С) >10 км    6/0 средняя 
[Ac trans]
+23 +7.6 37 +23  1010.8  0.1  720  266    +27.1       
21 09.06.10 350 (С) >10 км    4/0 средняя 
[Ac trans]
+19.7 +8.6 49 +21  1010.4  720  269           
00 10.06.10 350 (С) >10 км    4/0 средняя 
[Ac trans]
+19.6 +10.4 55 +24  1011.5  0.1  720  269           
03 10.06.10 350 (С) >10 км    4/0 средняя 
[Ac trans]
+20 +8.5 47 +20  1011.9  0.4  720  269           
06 10.06.10 020 (С) >10 км    1/0 средняя 
[Ac trans]
+24.1 +9.4 39 +25  1012  0.9  721  265  +18.2         
09 10.06.10 060 (СВ) >10 км    1/0 средняя 
[Ac trans]
+28.6 +11 34 +32  1011.2  -0.1  721  261           
12 10.06.10 060 (СВ) >10 км    1/1 1000 м 
[Cu hum]
+30.1 +8.9 27 +31  1010.4  -0.5  721  260           
15 10.06.10 040 (СВ) >10 км    3/1 600 м средняя 
[Cu hum|Ac trans]
+28.5 +11.8 36 +33  1010.5  -0.2  720  261           
18 10.06.10 030 (СВ) >10 км    4/0 средняя 
[Ac trans]
+23.1 +11.5 48 +27  1012  0.6  721  266    +30.6       
21 10.06.10 100 (В) >10 км    ясно 
+20.9 +11.3 54 +25  1012.3  721  268           
00 11.06.10 110 (В) >10 км    ясно 
+18.5 +10.5 60 +22  1012.5  -0.3  721  270           
03 11.06.10 060 (СВ) >10 км    1/0 средняя 
[Ac trans]
+22.2 +8.6 42 +22  1012.3  -0.6  721  267           
06 11.06.10 110 (В) >10 км    1/0 средняя 
[Ac trans]
+26.1 +11.5 40 +30  1011.7  0.1  721  263  +18.3         
09 11.06.10 070 (В) >10 км    3/0 средняя 
[Ac trans]
+30.8 +11.7 31 +35  1010.8  721  259           
12 11.06.10 090 (В) >10 км    5/5 600 м 
[Cu hum]
+31.9 +13.3 32 +39  1010.2  -0.5  721  257           
15 11.06.10 080 (В) >10 км  в посл. час ливневой дождь  8/6 1000 м кучево-дожд., средняя 
[Cb calv|Ac trans]
+27.7 +14.7 45 +37  1010.5  -0.3  720  261           
18 11.06.10 030 (СВ) >10 км  {гроза}  6/3 1000 м кучево-дожд., средняя 
[Cb calv|Ac trans]
+24.1 +11.1 44 +28  1012.5  1.2  721  265    +32.1  0.0     
21 11.06.10 070 (В) >10 км    3/0 средняя 
[Ac trans]
+22 +11.9 53 +27  1012.9  0.1  721  267           
00 12.06.10 070 (В) >10 км    3/0 средняя 
[Ac trans]
+19.3 +10.4 56 +22  1013.2  -0.3  721  269           
03 12.06.10 100 (В) >10 км    3/0 средняя 
[Ac trans]
+21.3 +14.9 67 +31  1012.9  0.2  721  266           
06 12.06.10 140 (ЮВ) >10 км    4/0 средняя 
[Ac trans]
+25 +15.9 57 +36  1013.6  1.3  722  263  +19.1         
09 12.06.10 130 (ЮВ) >10 км    4/0 средняя, верхняя 
[Ac trans|Ci fib]
+30.6 +11.3 30 +34  1028.8  0.1  722  260           
12 12.06.10 120 (ЮВ) >10 км    4/1 600 м средняя, верхняя 
[Cu hum|Ac trans|Ci fib]
+31.2 +11.5 30 +35  1012.1  -0.6  722  259           
15 12.06.10 130 (ЮВ) >10 км    4/3 1000 м средняя 
[Cu hum|Ac trans]
+29.6 +11.5 33 +34  1012.1  -0.2  722  260           
18 12.06.10 110 (В) >10 км    4/1 1000 м средняя 
[Sc|Ac trans]
+24.5 +10.5 41 +27  1013.5  0.5  722  265    +31.4       
21 12.06.10 130 (ЮВ) >10 км    3/0 средняя 
[Ac trans]
+20.6 +11.4 56 +24  1014.8  0.6  723  269           
00 13.06.10 120 (ЮВ) >10 км    3/0 средняя 
[Ac trans]
+18.4 +12.3 68 +24  1015.5  0.2  723  270           
03 13.06.10 160 (Ю) >10 км    3/0 средняя 
[Ac trans]
+19.3 +11.9 62 +25  1015.6  0.3  723  270           
06 13.06.10 100 (В) >10 км    ясно 
+25.3 +13.8 49 +33  1014.2  -0.3  723  264  +17.6         
09 13.06.10 110 (В) >10 км    ясно 
+29.6 +13.1 36 +36  1012.7  -0.7  722  260           
12 13.06.10 120 (ЮВ) >10 км    1/1 600 м 
[Cu hum]
+32.2 +16.2 38 +44  1011.3  -0.9  722  257           
15 13.06.10 120 (ЮВ) >10 км    1/1 600 м 
[Cu hum]
+31.8 +18.4 45 +48  1010.5  -0.8  721  256           
18 13.06.10 200 (Ю) >10 км    ясно 
+25.9 +17.8 61 +41  1011.7  0.2  721  261    +32.5       
21 13.06.10 240 (ЮЗ) >10 км    ясно 
+21 +14.3 66 +29  1012.8  0.2  721  267           
00 14.06.10 210 (ЮЗ) >10 км    ясно 
+22.4 +12.8 55 +28  1012.6  721  266           
03 14.06.10 230 (ЮЗ) >10 км    ясно 
+22.8 +18 74 +38  1013.6  1.1  722  264           
06 14.06.10 тихо ()   >10 км    ясно 
+29.9 +18.1 49 +46  1012.7  0.4  722  258  +20.9         
09 14.06.10 040 (СВ) >10 км    1/1 600 м 
[Cu hum]
+33 +17.7 40 +48  1011.9  -0.3  722  256           
12 14.06.10 360 (С) >10 км    5/1 600 м верхняя 
[Cu hum|Ci fib]
+33.5 +16.3 36 +46  1011.6  -0.3  722  256           
15 14.06.10 020 (С) >10 км    3/0 верхняя 
[Ci fib]
+32.9 +17.4 40 +47  1010.1  -1.5  721  255           
18 14.06.10 020 (С) >10 км    3/0 средняя 
[Ac trans]
+27.3 +16.1 50 +39  1011.4  0.4  721  261    +34.2       
21 14.06.10 100 (В) >10 км    4/0 средняя 
[Ac trans]
+24.7 +15.9 58 +36  1011.3  -0.6  721  263           
00 15.06.10 100 (В) >10 км    4/0 средняя, верхняя 
[Ac trans|Ci fib]
+23.5 +15 59 +33  1010.8  -0.7  720  264           
03 15.06.10 110 (В) >10 км    8/0 средняя, верхняя 
[Ac trans|Ci fib]
+24.9 +16.6 60 +38  1010.5  720  262           
06 15.06.10 070 (В) >10 км    8/0 средняя, верхняя 
[Ac trans|Ci fib]
+30.1 +18.3 49 +46  1009.5  720  257  +23.3         
09 15.06.10 090 (В) >10 км    8/3 600 м средняя, верхняя 
[Cu hum|Ac trans|Ci fib]
+32.5 +15.1 35 +42  1008  -1.1  719  256           
12 15.06.10 130 (ЮВ) >10 км    10/3 1000 м кучево-дожд., средняя 
[Cb calv|Ac und]
+32.1 +15.1 36 +42  1007.8  -0.3  719  256           
15 15.06.10 090 (В) >10 км    8/3 1000 м кучево-дожд., средняя 
[Cb calv|Ac trans]
+30.9 +16.9 43 +44  1007.1  -0.8  718  256           
18 15.06.10 210 (ЮЗ) >10 км    10/3 1000 м кучево-дожд., средняя 
[Cb calv|Ac und]
+27 +15.9 51 +38  1008.6  0.8  719  260    +33.9       
21 15.06.10 200 (Ю) >10 км    6/3 1000 м кучево-дожд., средняя 
[Cb calv|Ac trans]
+24.5 +15.4 57 +35  1009  719  263           
00 16.06.10 260 (З) >10 км    6/0 средняя 
[Ac trans]
+22 +16.6 71 +35  1008.5  -0.9  718  264           
03 16.06.10 010 (С) >10 км    9/4 1000 м кучево-дожд., средняя 
[Cb calv|Ac trans]
+23.1 +15.2 61 +33  1009.3  0.9  719  264           
06 16.06.10 290 (З) >10 км    10/3 1000 м кучево-дожд., средняя 
[Cb calv|Ac trans]
+23.3 +18.9 76 +41  1011.1  1.8  720  263  +21.7         
09 16.06.10 250 (З) >10 км  слаб. ливневой дождь  10/8 1000 м кучево-дожд., средняя 
[Cb cap|Ac und]
+23.5 +18.4 73 +40  1010.9  -0.1  720  263           
12 16.06.10 320 (СЗ) >10 км  {ливн. осадки}  6/3 1000 м кучево-дожд., средняя 
[Cb calv|Ac trans]
+26.1 +17.5 59 +41  1009.3  -1.1  719  261           
15 16.06.10 320 (СЗ) >10 км    5/1 1000 м кучево-дожд., средняя 
[Cb calv|Ac trans]
+23.1 +16.4 66 +36  1009.5  -0.4  719  264           
18 16.06.10 310 (СЗ) >10 км  зарница  8/8 1000 м 
+22.1 +19 83 +40  1009.8  0.2  719  264    +26.2     
21 16.06.10 300 (СЗ) >10 км  зарница  8/3 1000 м кучево-дожд., средняя 
[Cb calv|Ac trans]
+22 +17.3 75 +36  1009.6  -0.3  719  264           
00 17.06.10 210 (ЮЗ) >10 км    6/3 1000 м кучево-дожд., средняя 
[Cb calv|Ac trans]
+20.5 +16.4 77 +33  1009.4  -0.4  719  266           
03 17.06.10 250 (З) >10 км    8/3 1000 м кучево-дожд., средняя 
[Cb calv|Ac trans]
+21.9 +17.5 76 +37  1008.6  -0.5  718  264           
06 17.06.10 290 (З) >10 км    8/1 600 м средняя 
[Cu med, cong|Ac trans]
+26.3 +16.6 55 +39  1007.9  718  260  +19.4         
09 17.06.10 310 (СЗ) >10 км    9/3 1000 м кучево-дожд., средняя 
[Cb cap|Ac trans]
+26.4 +18.1 60 +42  1007.9  0.1  718  260           
12 17.06.10 350 (С) >10 км  гроза без осадков  9/5 1000 м кучево-дожд., средняя 
[Cb cap|Ac trans]
+24.6 +17.3 64 +39  1006.6  -1.5  717  261           
15 17.06.10 020 (С) >10 км  {гроза}  8/4 1000 м кучево-дожд., средняя, верхняя 
[Cb calv|Ac trans|Ci sp]
+25 +17.5 63 +40  1006.6  717  261           
18 17.06.10 320 (СЗ) >10 км  гроза без осадков  10/4 1000 м кучево-дожд., средняя 
[Cb cap|Ac und]
+22 +18.1 79 +38  1007.8  0.7  718  263    +29.2       
21 17.06.10 280 (З) >10 км  {гроза, ливн. осадки}  10/4 1000 м кучево-дожд., средняя 
[Cb cap|Ac und]
+20.1 +16.2 78 +32  1008.3  0.1  718  266           
00 18.06.10 320 (СЗ) >10 км  {гроза, ливн. осадки}  6/3 200 м средняя 
[St|Ac trans]
+17.7 +16.2 91 +30  1009.1  0.3  718  268           
03 18.06.10 330 (СЗ) >10 км    6/3 600 м средняя 
[Sc diur, vesp|Ac trans]
+16 +13.1 83 +23  1009.3  -0.1  718  271           
06 18.06.10 360 (С) >10 км    5/3 600 м кучево-дожд., средняя 
[Cb calv|Ac trans]
+20.2 +12 59 +25  1008.8  0.2  718  267  +16       
09 18.06.10 360 (С) >10 км    6/3 600 м кучево-дожд., средняя 
[Cb calv|Ac trans]
+25.3 +12.7 46 +31  1008  0.1  718  262           
12 18.06.10 020 (С) >10 км    8/5 600 м кучево-дожд., средняя 
[Cb calv|Ac trans]
+25.2 +12.4 45 +31  1007.6  -0.4  718  262           
15 18.06.10 020 (С) >10 км    6/3 600 м кучево-дожд., средняя 
[Cb calv|Ac trans]
+22.6 +12.2 52 +28  1008.5  0.4  718  265           
18 18.06.10 020 (С) >10 км    8/3 600 м кучево-дожд., средняя 
[Cb calv|Ac trans]
+19.8 +10.2 54 +23  1010.5  1.4  719  268    +26.8       
21 18.06.10 010 (С) >10 км    4/0 средняя 
[Ac trans]
+17.1 +11.4 69 +22  1011.3  0.3  720  271           
00 19.06.10 060 (СВ) >10 км    ясно 
+16 +10.7 71 +19  1011.1  -0.3  719  272           
03 19.06.10 090 (В) >10 км    6/0 средняя 
[Ac trans]
+16.9 +11.3 70 +21  1011.2  0.2  719  271           
06 19.06.10 110 (В) >10 км    8/3 600 м средняя 
[Cu med, cong|Ac trans]
+20.7 +10.4 52 +23  1010.8  0.2  720  268  +14.8         
09 19.06.10 080 (В) >10 км    6/1 1000 м средняя 
[Cu med, cong|Ac trans]
+25.7 +11 40 +29  1009.5  -0.4  719  263           
12 19.06.10 090 (В) >10 км    8/8 1000 м 
[Cu hum]
+28.3 +11.8 36 +33  1008  -0.9  719  260           
15 19.06.10 110 (В) >10 км    8/3 1000 м кучево-дожд., средняя 
[Cb calv|Ac trans]
+27.5 +10.5 35 +30  1008.2  719  261           
18 19.06.10 060 (СВ) >10 км    8/4 1000 м кучево-дожд., средняя 
[Cb calv|Ac trans]
+22.8 +10 44 +25  1010.2  1.1  719  266    +28.8       
21 19.06.10 070 (В) >10 км    3/0 средняя 
[Ac trans]
+19.5 +12.2 63 +25  1009.9  -0.8  719  268           
00 20.06.10 070 (В) >10 км    4/0 средняя 
[Ac trans]
+18.2 +16.2 88 +31  1010.2  0.1  719  268           
03 20.06.10 090 (В) >10 км    8/3 600 м средняя 
[Sc|Ac trans]
+18.4 +17.3 93 +33  1010.7  0.6  719  268           
06 20.06.10 110 (В) >10 км    6/3 600 м средняя 
[Cu hum|Ac trans]
+23.8 +16.3 63 +36  1011.1  1.3  720  263  +18.1         
09 20.06.10 120 (ЮВ) 12  >10 км    8/1 600 м средняя 
[Cu hum|Ac trans]
+27.7 +10.9 35 +31  1009.7  -0.9  720  261           
12 20.06.10 110 (В) 12  >10 км    8/0 верхняя 
[Ci fib]
+29.2 +7.1 25 +29  1008.6  -0.8  719  261           
15 20.06.10 110 (В) 10  >10 км    4/0 верхняя 
[Ci fib]
+28.5 +8.5 29 +29  1008.2  -0.4  719  261           
18 20.06.10 120 (ЮВ) >10 км    6/0 верхняя 
[Ci fib]
+24.4 +13.4 50 +31  1008.9  719  263    +29.7       
21 20.06.10 120 (ЮВ) >10 км    3/0 верхняя 
[Ci fib]
+21.7 +12.7 57 +28  1010  0.6  719  266           
00 21.06.10 120 (ЮВ) >10 км    3/0 верхняя 
[Ci fib]
+19 +12 64 +24  1010.2  -0.2  719  269           
03 21.06.10 110 (В) >10 км    4/0 верхняя 
[Ci fib]
+18.8 +12.5 67 +25  1010.3  719  269           
06 21.06.10 100 (В) 10  >10 км    6/1 600 м верхняя 
[Cu hum|Ci fib]
+23.6 +11.5 47 +28  1010.1  0.6  720  265  +18.3         
09 21.06.10 080 (В) >10 км    8/3 1000 м средняя 
[Sc|Ac trans]
+26.5 +11.2 38 +30  1009  -0.6  719  262           
12 21.06.10 090 (В) >10 км    8/3 1000 м кучево-дожд., средняя 
[Cb calv|Ac trans]
+28 +10.5 34 +31  1008.6  -0.1  719  261           
15 21.06.10 090 (В) >10 км    9/3 1000 м кучево-дожд., средняя 
[Cb calv|Ac trans]
+26.6 +10.6 37 +29  1009  0.1  719  262           
18 21.06.10 250 (З) >10 км    6/0 средняя 
[Ac trans]
+21.1 +15.1 69 +31  1010.7  0.8  720  266    +28.2       
21 21.06.10 120 (ЮВ) >10 км    4/0 кучево-дожд., средняя 
[Cb calv|Ac trans]
+19.6 +10.6 56 +23  1011.2  0.1  720  269           
00 22.06.10 070 (В) >10 км    4/0 кучево-дожд., средняя 
[Cb calv|Ac trans]
+18.2 +12.8 71 +25  1008.6  -2.6  718  269           
03 22.06.10 090 (В) >10 км    9/4 1000 м кучево-дожд., средняя 
[Cb calv|Ac trans]
+19 +15.6 81 +31  1008.3  -0.1  718  267           
06 22.06.10 060 (СВ) >10 км    10/3 1000 м кучево-дожд., средняя 
[Cb calv|Ac und]
+21.4 +15.8 70 +33  1007.1  -0.7  717  265  +18.1         
09 22.06.10 360 (С) >10 км  слаб. ливневой дождь  10/4 1000 м кучево-дожд., средняя 
[Cb cap|Ac und]
+24.1 +15.1 57 +34  1005.4  -1.2  716  262           
12 22.06.10 010 (С) >10 км  {ливн. осадки}  5/1 1000 м кучево-дожд., средняя 
[Cb calv|Ac trans]
+26.8 +14.5 47 +36  1002.9  -2  715  259           
15 22.06.10 250 (З) >10 км    8/4 1000 м кучево-дожд., средняя 
[Cb calv|Ac trans]
+25.8 +15.7 54 +37  1003.5  0.5  715  260           
18 22.06.10 310 (СЗ) >10 км  слаб. ливневой дождь, в посл. час гроза  8/4 1000 м кучево-дожд., средняя 
[Cb calv|Ac trans]
+21.1 -15.4 7 +21  1004.1  -0.2  715  269    +28.2  0.0     
21 22.06.10 100 (В) >10 км  {ливн. осадки}  6/3 1000 м кучево-дожд., средняя 
[Cb calv|Ac trans]
+20.7 +16.4 76 +33  1004.9  0.7  716  264           
00 23.06.10 090 (В) >10 км  {ливн. осадки}  10/4 1000 м кучево-дожд., средняя 
[Cb calv|Ac und]
+19 +17 88 +33  1003.7  -1.4  715  265           
03 23.06.10 110 (В) 10 км    10/6 600 м кучево-дожд., средняя 
[Cb calv|Ac und]
+19.7 +17.6 88 +35  1004.1  0.5  715  265           
06 23.06.10 100 (В) >10 км    10/5 600 м кучево-дожд., средняя 
[Cb calv|Ac und]
+12.2 +17.7 100 +22  1004.2  0.3  821  313  +18.1         
09 23.06.10 100 (В) >10 км    9/4 600 м кучево-дожд., средняя 
[Cb calv|Ac trans]
+24.4 +16.8 63 +38  1003.7  715  261           
12 23.06.10 090 (В) 11  >10 км    8/3 1000 м средняя, верхняя 
[Cu hum|Ac trans|Ci]
+29.1 +12.2 35 +34  1002.1  -0.9  714  258           
15 23.06.10 100 (В) >10 км  местами туман поземный  6/6 1000 м 
+27.7 +8.5 30 +28    -0.8  714  260           
18 23.06.10 100 (В) >10 км    5/0 верхняя 
[Ci fib]
+23.1 +12 50 +28  1002.3  0.1  714  263    +29.3       
21 23.06.10 080 (В) >10 км    5/0 верхняя 
[Ci fib]
+19.4 +12.8 66 +25  1002.3  -0.6  713  266           
00 24.06.10 090 (В) >10 км    3/0 верхняя 
[Ci fib]
+17.2 +12.3 73 +23  1001.5  -1.2  713  268           
03 24.06.10 110 (В) >10 км    9/6 1000 м кучево-дожд., средняя 
[Cb calv|Ac trans]
+18.5 +14.7 79 +28  1000.5  -0.6  712  266           
06 24.06.10 090 (В) >10 км    10/6 600 м средняя 
[Sc|Ac und]
+21.1 +15.6 71 +32  999.8  -0.2  712  263  +16         
09 24.06.10 100 (В) >10 км    10/6 600 м средняя 
[Sc|Ac und]
+23.8 +15.9 61 +36  999.5  0.2  712  260           
12 24.06.10 100 (В) >10 км    8/4 1000 м кучево-дожд., средняя, верхняя 
[Cb cap|Ac trans|Ci]
+28 +15.2 46 +38  997.8  -1  711  257           
15 24.06.10 120 (ЮВ) >10 км  гроза, ливневой дождь  10/6 1000 м кучево-дожд., средняя 
[Cb cap|Ac und]
+20.3 +18.2 88 +37  999.7  0.6  712  263           
18 24.06.10 200 (Ю) >10 км  гроза без осадков{ливн. осадки}  10/6 600 м кучево-дожд., средняя 
[Cb cap|Ac und]
+21.3 +17 76 +35  1001.2  1.6  713  263    +28.7     
21 24.06.10 270 (З) >10 км  гроза, ливневой дождь  10/5 600 м кучево-дожд., средняя 
[Cb cap|Ac und]
+16.9 +15.9 94 +29  1002.2  0.2  713  267           
00 25.06.10 050 (СВ) >10 км  {гроза, ливн. осадки}  10/4 600 м кучево-дожд., средняя 
[Cb cap|Ac As]
+16.6 +15.4 93 +29  1003.5  1.1  714  268           
03 25.06.10 280 (З) >10 км    10/4 1000 м средняя 
[Sc diur, vesp|Ac und]
+16.7 +15.7 94 +29  1003.5  714  268           
06 25.06.10 060 (СВ) >10 км    10/5 300 м кучево-дожд., средняя 
[Cb calv|Ac und]
+19.4 +17.3 88 +34  1004.2  1.2  715  265  +16.1       
09 25.06.10 120 (ЮВ) >10 км    8/5 300 м кучево-дожд., средняя 
[Cb calv|Ac trans]
+23.2 +16.1 64 +35  1003.8  0.2  715  262           
12 25.06.10 130 (ЮВ) >10 км    8/5 600 м кучево-дожд., средняя 
[Cb calv|Ac trans]
+25.5 +14.9 52 +35  1003.9  0.5  715  261           
15 25.06.10 250 (З) >10 км  гроза без осадков  6/3 600 м кучево-дожд., средняя 
[Cb calv|Ac trans]
+23.5 +15.6 61 +35  1004.5  0.2  716  262           
18 25.06.10 280 (З) >10 км  {гроза}  6/3 1000 м кучево-дожд., средняя 
[Cb calv|Ac trans]
+18.5 +14.1 76 +27  1007.6  2.2  717  268    +26.8       
21 25.06.10 300 (СЗ) >10 км    3/0 средняя 
[Ac trans]
+17.2 +14.8 86 +29  1008.3  0.3  717  269           
00 26.06.10 330 (СЗ) >10 км    ясно 
+16.5 +13.8 84 +25  1008.4  717  270           
03 26.06.10 340 (С) >10 км    3/0 средняя 
[Ac trans]
+17.2 +15.9 92 +30  1008.4  0.1  718  268           
06 26.06.10 040 (СВ) >10 км    8/1 600 м средняя, верхняя 
[Sc|Ac trans|Ci]
+22.7 +15.1 62 +33  1007.3  -0.1  717  264  +16.4         
09 26.06.10 040 (СВ) >10 км    6/1 600 м кучево-дожд., верхняя 
[Cb calv|Ci fib]
+26.7 +12.5 41 +32  1006.7  0.1  718  261           
12 26.06.10 090 (В) >10 км    5/3 600 м кучево-дожд., верхняя 
[Cb calv|Ci fib]
+30.2 +9.9 28 +32  1005.5  -0.6  717  258           
15 26.06.10 080 (В) >10 км    8/0 средняя, верхняя 
[Ac trans|Ci]
+29.3 +6.1 23 +29  1005.4  -0.3  717  260           
18 26.06.10 270 (З) >10 км    6/0 верхняя 
[Ci fib]
+23.3 +13.9 55 +31  1007.1  0.7  717  263    +30.7       
21 26.06.10 300 (СЗ) >10 км    3/0 верхняя 
[Ci fib]
+23.1 +14.5 58 +32  1007.1  717  263           
00 27.06.10 060 (СВ) >10 км    5/0 верхняя 
[Ci]
+20 +14.9 72 +30  1007.8  0.2  718  266           
03 27.06.10 150 (ЮВ) >10 км    8/1 600 м кучево-дожд., верхняя 
[Cb calv|Ci]
+20.2 +12.8 62 +26  1008.4  0.6  718  267           
06 27.06.10 250 (З) >10 км    10/4 600 м кучево-дожд., средняя 
[Cb calv|Ac und]
+22.8 +15.3 63 +33  1009.5  1.4  719  264  +17.6         
09 27.06.10 290 (З) >10 км    8/3 600 м кучево-дожд., верхняя 
[Cb calv|Ci fib]
+23.8 +17.4 67 +38  1009.9  0.7  720  263           
12 27.06.10 300 (СЗ) >10 км    6/1 600 м верхняя 
[Cu hum|Ci fib]
+27.3 +13.4 42 +34  1009.2  -0.2  719  261           
15 27.06.10 280 (З) >10 км    10/6 1000 м кучево-дожд., средняя 
[Cb calv|Ac und]
+24.9 +13.7 50 +32  1009.8  0.2  720  263           
18 27.06.10 310 (СЗ) >10 км    8/4 1000 м кучево-дожд., верхняя 
[Cb calv|Ci fib]
+22.2 +16.6 71 +35  1010.5  0.3  720  265    +29.6       
21 27.06.10 310 (СЗ) >10 км    3/0 верхняя 
[Ci fib]
+19.5 +16.5 83 +33  1011.1  720  267           
00 28.06.10 330 (СЗ) >10 км    ясно 
+18.5 +17 91 +33  1011.7  0.4  720  268           
03 28.06.10 310 (СЗ) >10 км    5/0 средняя, верхняя 
[Ac trans|Ci fib]
+18.8 +16.9 89 +32  1011.9  0.3  720  268           
06 28.06.10 020 (С) >10 км    5/0 средняя, верхняя 
[Ac trans|Ci fib]
+24 +17 65 +38  1011  720  263  +17.7         
09 28.06.10 060 (СВ) >10 км    8/1 600 м средняя 
[Cu med, cong|Ac trans]
+27.8 +14.1 43 +36  1009.9  -0.5  720  260           
12 28.06.10 020 (С) >10 км    6/4 600 м средняя 
[Cu med, cong|Ac trans]
+30.1 +12.9 35 +36  1008.5  -0.9  719  259           
15 28.06.10 300 (СЗ) >10 км    8/4 600 м кучево-дожд., средняя 
[Cb calv|Ac trans]
+25.7 +18.7 65 +43  1009  -0.2  719  260           
18 28.06.10 340 (С) >10 км  в посл. час гроза{ливн. осадки}  8/4 600 м кучево-дожд., средняя 
[Cb calv|Ac trans]
+22.6 +9.9 44 +24  1008.7  -0.9  718  266    +30.9       
21 28.06.10 270 (З) >10 км    6/3 1000 м кучево-дожд., средняя 
[Cb calv|Ac trans]
+19.8 +15.8 78 +31  1009.5  0.4  719  267           
00 29.06.10 260 (З) >10 км    9/5 600 м кучево-дожд., средняя 
[Cb calv|Ac trans]
+19.7 +16.4 81 +32  1009.1  -0.4  718  266           
03 29.06.10 220 (ЮЗ) >10 км  слаб. ливневой дождь  10/6 600 м кучево-дожд., средняя 
[Cb cap|Ac und]
+19.5 +15.9 80 +32  1008.1  -1  718  266           
06 29.06.10 230 (ЮЗ) >10 км  {гроза, ливн. осадки}  10/5 1000 м кучево-дожд., средняя 
[Cb calv|Ac und]
+22.1 +15.8 67 +33  1007.6  -0.1  718  264  +19.3    0.0     
09 29.06.10 310 (СЗ) >10 км  в посл. час гроза{ливн. осадки}  8/4 600 м кучево-дожд., средняя 
[Cb calv|Ac trans]
+23.8 +17.4 67 +38  1006.6  -0.6  717  262           
12 29.06.10 270 (З) >10 км  {гроза, ливн. осадки}  8/5 600 м кучево-дожд., средняя 
[Cb calv|Ac trans]
+26.1 +15.4 52 +37  1006.8  0.5  718  261           
15 29.06.10 270 (З) >10 км    8/3 1000 м кучево-дожд., средняя 
[Cb calv|Ac trans]
+23.6 +14.7 57 +33  1007.2  718  263           
18 29.06.10 280 (З) >10 км    3/0 средняя 
[Ac trans]
+20.8 +17 79 +34  1008  0.4  718  265    +28.2  0.5     
21 29.06.10 270 (З) >10 км    8/0 средняя 
[Ac trans]
+19.6 +16.4 82 +32  1008.3  718  266           
00 30.06.10 300 (СЗ) 10 км  гроза, ливневой дождь  10/6 480 м кучево-дожд., средняя 
[Cb cap|Ac und]
+16.3 +14.8 91 +26  1008.8  -0.1  718  270           
03 30.06.10 010 (С) >10 км  в посл. час ливневой дождь{гроза}  9/5 400 м кучево-дожд., средняя 
[Cb calv|Ac trans]
+16.8 +15.6 93 +28  1008.3  -0.4  717  269           
06 30.06.10 340 (С) >10 км  {гроза, ливн. осадки}  8/4 300 м кучево-дожд., средняя 
[Cb calv|Ac trans]
+19.4 +16.6 84 +33  1009  1.1  718  266  +16.2       
09 30.06.10 тихо ()   >10 км    9/6 480 м кучево-дожд., средняя 
[Cb calv|Ac trans]
+23.5 +17 67 +37  1009  0.7  719  263           
12 30.06.10 260 (З) >10 км  гроза без осадков  9/6 600 м кучево-дожд., средняя 
[Cb calv|Ac trans]
+24.7 +15.1 55 +35  1009.1  0.3  719  263           
15 30.06.10 260 (З) >10 км  {гроза}  9/6 700 м кучево-дожд., средняя 
[Cb calv|Ac trans]
+24.3 +15 56 +34  1009.4  0.2  719  263           
18 30.06.10 290 (З) >10 км  {гроза}  6/3 600 м кучево-дожд., средняя 
[Cb calv|Ac trans]
+19.2 +16.4 84 +32  1010.9  0.6  720  267    +25.9       
21 30.06.10 300 (СЗ) >10 км    3/0 средняя 
[Ac trans]
+19.3 +15.2 77 +30  1011.1  0.1  720  268           
00 01.07.10 310 (СЗ) >10 км    3/0 средняя 
[Ac trans]
+18.9 +14 73 +28  1011.2  720  268           
03 01.07.10 340 (С) >10 км    4/0 верхняя 
[Ci fib]
+19.1 +15.8 81 +31  1011  -0.1  720  268           
06 01.07.10 090 (В) >10 км    6/0 верхняя 
[Ci fib]
+22.9 +16.4 67 +35  1010  -0.2  719  264  +15.7         
09 01.07.10 090 (В) >10 км    8/8 600 м 
[Cu med, cong]
+26.5 +14.7 48 +36  1009  -0.4  719  261           
12 01.07.10 030 (СВ) >10 км    6/6 600 м 
[Cu hum]
+27.4 +14.9 46 +37  1008.1  -0.7  719  260           
15 01.07.10 360 (С) >10 км  гроза, ливневой дождь  10/8 1000 м кучево-дожд., средняя 
[Cb cap|Ac und]
+20.3 +14.3 68 +29  1008.8  -0.6  718  266           
18 01.07.10 290 (З) >10 км  гроза, ливневой дождь  10/6 1000 м кучево-дожд., средняя 
[Cb cap|Ac und]
+18.1 +16.6 91 +31  1012.2  2.9  720  268    +29.4  0.0     
21 01.07.10 200 (Ю) >10 км  гроза без осадков  8/4 1000 м кучево-дожд., средняя 
[Cb calv|Ac trans]
+17 +16.5 97 +31  1010.7  -1.6  719  269           
00 02.07.10 180 (Ю) >10 км  зарница{гроза, ливн. осадки}  3/1 1000 м кучево-дожд., средняя 
[Cb cap|Ac trans]
+15.6 +14.7 94 +25  1010.6  -0.3  719  271           
03 02.07.10 тихо ()   >10 км    4/1 1000 м кучево-дожд., средняя 
[Cb cap|Ac cuf]
+17.4 +15.3 88 +28  1010.7  0.3  719  269           
Время (UTC), дата Ветер
(°,м/с) 
Видим.   Явления Облачность Т
(°С)
Тd
(°С)
f(%) Тe
(°С)
Pmin
(гПа)
dP
(гПа)
Po
(мм)
O2
(г/м3)
Тmin Tmax R s Состояние
почвы